Weather History for Brookings, OR

Change the Weather History Date:

Monday, July 8, 2013

  Actual Average Record
Temperature  
Mean Temperature 56 °F -  
Max Temperature 63 °F 66 °F 108 °F (2008)
Min Temperature 48 °F 51 °F 45 °F (1932)
Degree Days  
Heating Degree Days 10    
Growing Degree Days 6 (Base 50)    
Moisture  
Dew Point 51 °F    
Average Humidity 91    
Maximum Humidity 100    
Minimum Humidity 72    
Precipitation  
Precipitation 0.00 in - - ()
Sea Level Pressure  
Sea Level Pressure 29.94 in    
Wind  
Wind Speed 1 mph (South)    
Max Wind Speed 7 mph    
Max Gust Speed -    
Visibility 5 miles    
Events Fog    
Averages and records for this station are not official NWS values.
T = Trace of Precipitation, MM = Missing Value Source: NWS Daily Summary

Daily Weather History Graph

Daily Weather History Graph

Search for Another Location

Airport:

Trip Planner

Search our weather history database for the weather conditions in past years. The results will help you decide how hot, cold, wet, or windy it might be!

Date:

Astronomy

Jul. 08, 2013 Rise Set
Actual Time 5:49 AM PDT 8:54 PM PDT
Civil Twilight 5:15 AM PDT 9:28 PM PDT
Nautical Twilight 4:32 AM PDT 10:11 PM PDT
Astronomical Twilight 3:40 AM PDT 11:03 PM PDT
Moon 6:25 AM PDT (7/8) 8:58 PM PDT (7/8)
Length of Visible Light 16h 12m
Length of Day
15h 05m
New Moon, 0% of the Moon is Illuminated
Jul 8
New Moon
Jul 15
First Quarter
Jul 22
Full
Jul 29
Last Quarter
Aug 6
New

Hourly Weather History & Observations

Time (PDT) Temp. Dew Point Humidity Pressure Visibility Wind Dir Wind Speed Gust Speed Precip Events Conditions
12:56 AM 52.9 °F 50.9 °F 93% 29.93 in 7.0 mi Calm Calm - N/A   Clear
1:56 AM 52.0 °F 50.9 °F 96% 29.92 in 8.0 mi Calm Calm - N/A   Clear
2:56 AM 50.9 °F 48.9 °F 93% 29.92 in 8.0 mi Calm Calm - N/A   Clear
3:56 AM 50.9 °F 48.9 °F 93% 29.92 in 7.0 mi Calm Calm - N/A   Clear
4:46 AM 50.0 °F 48.2 °F 94% 29.91 in 7.0 mi Calm Calm - N/A   Partly Cloudy
4:56 AM 50.0 °F 48.9 °F 96% 29.92 in 7.0 mi Calm Calm - N/A   Partly Cloudy
5:13 AM 50.0 °F 48.2 °F 94% 29.91 in 7.0 mi Calm Calm - N/A   Mostly Cloudy
5:48 AM 50.0 °F 48.2 °F 94% 29.91 in 1.8 mi Calm Calm - N/A   Overcast
5:56 AM 50.0 °F 48.9 °F 96% 29.92 in 0.5 mi Calm Calm - N/A Fog Fog
6:03 AM 50.0 °F 48.2 °F 94% 29.91 in 0.2 mi Calm Calm - N/A Fog Fog
6:32 AM 48.2 °F 48.2 °F 100% 29.91 in 0.5 mi Calm Calm - N/A Fog Fog
6:38 AM 48.2 °F 48.2 °F 100% 29.91 in 1.0 mi Calm Calm - N/A   Mostly Cloudy
6:40 AM 48.2 °F 48.2 °F 100% 29.91 in 2.0 mi Calm Calm - N/A   Mostly Cloudy
6:42 AM 48.2 °F 48.2 °F 100% 29.91 in 4.0 mi Calm Calm - N/A   Scattered Clouds
6:56 AM 50.0 °F 48.9 °F 96% 29.92 in 9.0 mi Calm Calm - N/A   Partly Cloudy
7:10 AM 50.0 °F 48.2 °F 94% 29.92 in 1.5 mi Calm Calm - N/A   Mostly Cloudy
7:12 AM 50.0 °F 48.2 °F 94% 29.92 in 0.8 mi SE 3.5 mph - N/A   Mist
7:15 AM 50.0 °F 48.2 °F 94% 29.92 in 0.2 mi SE 3.5 mph - N/A Fog Fog
7:26 AM 51.8 °F 50.0 °F 94% 29.92 in 0.2 mi Calm Calm - N/A Fog Fog
7:42 AM 51.8 °F 51.8 °F 100% 29.92 in 0.8 mi Calm Calm - N/A   Overcast
7:45 AM 51.8 °F 51.8 °F 100% 29.92 in 1.5 mi Calm Calm - N/A   Overcast
7:48 AM 53.6 °F 51.8 °F 94% 29.93 in 3.0 mi South 3.5 mph - N/A   Overcast
7:56 AM 52.9 °F 50.9 °F 93% 29.93 in 1.0 mi SSE 3.5 mph - N/A   Overcast
7:58 AM 53.6 °F 51.8 °F 94% 29.93 in 0.5 mi South 3.5 mph - N/A Fog Fog
8:11 AM 53.6 °F 51.8 °F 94% 29.93 in 1.0 mi SSE 3.5 mph - N/A   Overcast
8:25 AM 53.6 °F 51.8 °F 94% 29.93 in 1.5 mi SSE 3.5 mph - N/A   Overcast
8:32 AM 53.6 °F 51.8 °F 94% 29.93 in 1.0 mi South 3.5 mph - N/A   Overcast
8:38 AM 53.6 °F 51.8 °F 94% 29.94 in 0.5 mi South 3.5 mph - N/A Fog Fog
8:47 AM 53.6 °F 51.8 °F 94% 29.94 in 0.8 mi SE 3.5 mph - N/A   Overcast
8:56 AM 54.0 °F 52.0 °F 93% 29.94 in 1.0 mi Calm Calm - N/A   Overcast
8:59 AM 53.6 °F 53.6 °F 100% 29.94 in 1.5 mi Calm Calm - N/A   Overcast
9:02 AM 55.4 °F 53.6 °F 94% 29.94 in 3.0 mi Calm Calm - N/A   Mostly Cloudy
9:17 AM 57.2 °F 53.6 °F 88% 29.94 in 6.0 mi SW 3.5 mph - N/A   Scattered Clouds
9:56 AM 57.9 °F 52.9 °F 83% 29.94 in 10.0 mi SW 4.6 mph - N/A   Clear
10:56 AM 59.0 °F 52.0 °F 78% 29.95 in 10.0 mi SW 4.6 mph - N/A   Clear
11:56 AM 57.9 °F 52.0 °F 81% 29.96 in 10.0 mi South 6.9 mph - N/A   Clear
12:56 PM 59.0 °F 52.9 °F 80% 29.97 in 10.0 mi Variable 5.8 mph - N/A   Clear
1:47 PM 57.2 °F 53.6 °F 88% 29.97 in 7.0 mi SSW 6.9 mph - N/A   Partly Cloudy
1:56 PM 55.9 °F 52.0 °F 87% 29.98 in 5.0 mi SW 6.9 mph - N/A   Scattered Clouds
2:56 PM 59.0 °F 52.0 °F 78% 29.98 in 10.0 mi SSW 6.9 mph - N/A   Clear
3:56 PM 59.0 °F 52.0 °F 78% 29.99 in 10.0 mi SE 5.8 mph - N/A   Clear
4:56 PM 61.9 °F 54.0 °F 75% 29.98 in 10.0 mi SSE 6.9 mph - N/A   Clear
5:56 PM 63.9 °F 54.9 °F 72% 29.97 in 10.0 mi SSE 4.6 mph - N/A   Clear
6:56 PM 61.0 °F 52.9 °F 75% 29.97 in 10.0 mi South 5.8 mph - N/A   Clear
7:56 PM 61.9 °F 54.0 °F 75% 29.96 in 10.0 mi Calm Calm - N/A   Clear
8:56 PM 57.9 °F 52.9 °F 83% 29.98 in 10.0 mi ENE 3.5 mph - N/A   Clear
9:56 PM 57.9 °F 54.0 °F 87% 29.99 in 10.0 mi Calm Calm - N/A   Clear
10:56 PM 56.8 °F 54.0 °F 90% 30.01 in 10.0 mi Calm Calm - N/A   Clear
11:56 PM 54.9 °F 52.9 °F 93% 30.01 in 9.0 mi Calm Calm - N/A   Clear